Regional Weather Roundup
Issued by NWS Wakefield, VA

Home | Current Version | Previous Version | Text Only | Print | Product List | Glossary Off
Versions: 1 2 3 4 5 6 7 8 9 10 11 12 13 14 15 16 17 18 19 20 21 22 23 24 25 26 27 28 29 30 31 32 33 34 35 36 37 38 39 40 41 42 43 44 45 46 47 48 49 50

000
ASUS41 KAKQ 311110
RWRAKQ

REGIONAL WEATHER ROUNDUP
NATIONAL WEATHER SERVICE WAKEFIELD VA
700 AM EDT THU JUL 31 2014

Note: "fair" indicates few or no clouds below 12,000 feet with no
significant weather and/or obstructions to visibility. * = Denotes
station may not report precipitation (e.g., rain,snow,etc.),
thunder or fog.

VAZ042-051-052>054-056-311200-
NORTHERN VIRGINIA

CITY           SKY/WX    TMP DP  RH WIND       PRES   REMARKS
WASH NATIONAL  PTCLDY    68  60  75 SW6       30.09S
DULLES         PTCLDY    60  57  89 CALM      30.10R
FORT BELVOIR   CLEAR     59  58  96 CALM      30.10S
QUANTICO       MOCLDY    63  59  87 W3        30.10S
FREDERICKSBRG* CLEAR     62  61  98 CALM      30.10R
STAFFORD*      CLEAR     55  55 100 CALM      30.14R FOG
WARRENTON      CLEAR     58  58 100 CALM      30.10R FOG
CULPEPER*      CLEAR    N/A N/A N/A CALM      30.11R FOG
MANASSAS*      CLEAR     57  57 100 CALM      30.10
LEESBURG*      CLEAR     61  61 100 S6        30.10S
WINCHESTER     CLEAR     59  57  94 CALM      30.10S
$$

VAZ048-049-060>072-079>083-311200-
CENTRAL AND SOUTH CENTRAL VIRGINIA...AND NORTH CENTRAL NORTH CAROLINA

CITY           SKY/WX    TMP DP  RH WIND       PRES   REMARKS
RICHMOND       MOCLDY    65  61  87 SE3       30.11R
CHESTERFIELD*  SUNNY    N/A N/A N/A CALM      30.12S
HANOVER        CLEAR     59  58  96 CALM      30.13R FOG
TAPPAHANNOCK*  CLEAR     64  61  88 S3        30.12R
CHARLOTTSVILLE CLEAR     59  56  89 CALM      30.10S
ORANGE*        CLEAR     57  55  94 CALM      30.11S
LOUISA*        CLEAR     63  59  88 CALM      30.10S
FARMVILLE*     CLEAR     57  55  94 CALM      30.10S FOG
SOUTH HILL*    PTCLDY    63  63 100 CALM      30.17R
ROANOKE RAPIDS NOT AVBL
RALEIGH        MOCLDY    67  64  90 CALM      30.11R
$$

VAZ088>098-311200-
SOUTHEAST VIRGINIA

CITY           SKY/WX    TMP DP  RH WIND       PRES   REMARKS
NORFOLK        PTCLDY    68  61  78 SW3       30.12R
VIRGINIA BEACH PTCLDY    66  62  87 CALM      30.12R
NORFOLK NAVAL  PTCLDY    71  63  75 CALM      30.13R
WEST POINT*    CLEAR     70  64  83 CALM      30.13R
NEWPORT NEWS   PTCLDY    66  61  84 NE3       30.12R
LANGLEY AFB    PTCLDY    66  66 100 CALM      30.12R
FORT EUSTIS    PTCLDY    70  69  95 S5        30.10R
WILLIAMSBURG*  PTCLDY    72  66  83 S5        30.12S
FRANKLIN*      PTCLDY    61 N/A N/A CALM      30.12R
WAKEFIELD      PTCLDY    62  59  90 CALM      30.12R FOG
$$

VAZ020-022-025-037-045-311200-
WESTERN AND SOUTHWEST VIRGINIA

CITY           SKY/WX    TMP DP  RH WIND       PRES   REMARKS
STAUNTON*      CLEAR     53  51  92 CALM      30.15R FOG
HOT SPRINGS VA CLEAR     55  49  80 W10       30.22S
LYNCHBURG      PTCLDY    58  57  97 CALM      30.14R
DANVILLE       PTCLDY    61  59  93 CALM      30.12R
MARTINSVILLE   PTCLDY    56  55  99 CALM      30.15S FOG
ROANOKE        MOCLDY    58  54  86 CALM      30.16R
BLACKSBURG     PTCLDY    54  54 100 CALM        N/A  FOG
DUBLIN*        PTCLDY    53  53 100 CALM      30.19R FOG
MARION*        PTCLDY    52  51  96 CALM      30.22R FOG
HILLSVILLE*    MOCLDY    53  52  96 CALM      30.19S
RICHLANDS*     PTSUNNY   58  55  90 E5        30.19R
WISE*          PTCLDY    55  55 100 CALM      30.20R
ABINGDON*      MOCLDY    58  56  91 E6        30.17R
$$

MDZ021>025-VAZ099-100-311200-
SOUTHERN MARYLAND AND THE DELMARVA PENINSULA

CITY           SKY/WX    TMP DP  RH WIND       PRES   REMARKS
PATUXENT RIVER CLEAR     67  63  87 SW5       30.10R
BAY BRIDGE APT   N/A     70  63  78 S3        30.09S
LEONARDTOWN    CLEAR     64  61  88 SW3       30.12R
DOVER          CLEAR     64  61  91 S6        30.08R
GEORGETOWN     CLEAR     64  59  83 S8        30.12R
EASTON         CLEAR     66  64  94 CALM      30.13S
CAMBRIDGE      CLEAR     61  57  88 CALM      30.10R
SALISBURY      CLEAR     63  57  81 CALM      30.11R
OCEAN CITY     PTCLDY    62  60  93 CALM      30.12R
WALLOPS ISLAND CLEAR     69  63  81 SW7       30.12R
ACCOMACK*        N/A     63  59  88 S5        30.11S
$$

NCZ012>017-030>032-311200-
EASTERN NORTH CAROLINA

CITY           SKY/WX    TMP DP  RH WIND       PRES   REMARKS
ELIZABETH CITY PTCLDY    65  63  93 CALM      30.12R
AHOSKIE*       PTCLDY    62  61  94 CALM      30.12R
EDENTON*       PTCLDY    65  64  94 CALM      30.12R
CURRITUCK*     PTCLDY    64  61  88 CALM      30.12S
KILL DEVIL HLS PTCLDY    71  64  78 CALM      30.11R
MANTEO         NOT AVBL
CAPE HATTERAS  CLEAR     74  65  73 NE6       30.10R
GOLDSBORO      CLOUDY    69  69  98 NE1       30.08S
WASHINGTON     MOCLDY    64  63  94 CALM      30.11R
GREENVILLE     CLOUDY    64  64 100 N3        30.13R
NEW BERN       PTCLDY    71  67  87 CALM      30.11R
WILMINGTON     CLOUDY    71  68  90 NE3       30.07R
$$

VAZ048-311200-
ELSEWHERE

CITY           SKY/WX    TMP DP  RH WIND       PRES   REMARKS
HARRISBURG PA  PTCLDY    63  60  90 N3        30.08R FOG
BALTIMORE      PTCLDY    60  56  86 W3        30.09R
ANNAPOLIS      CLEAR     66  60  81 W3        30.09R
ANDREWS AFB    CLEAR     64  60  87 S8        30.09S
WILMINGTON DE  PTCLDY    64  57  78 SW3       30.10R
PHILADELPHIA   MOSUNNY   66  57  72 S6        30.10R
WILDWOOD NJ*   SUNNY     63  57  82 CALM      30.12S
ATLANTIC CITY  SUNNY     63  60  90 S3        30.11R
HENDERSON NC   MOCLDY    64  63  94 CALM      30.12R FOG
GREENSBORO     MOCLDY    64  61  90 CALM      30.12R
ROCKY MOUNT    CLOUDY    67  64  90 NE3       30.11R
FAYETTEVILLE   CLOUDY    70  67  90 NE3       30.08S
CHARLOTTE      CLOUDY    71  63  75 E5        30.11R
$$

VAZ100-311200-
MARINE

STATION/POSITION TIME  TEMP    WIND        PRES    WAVE   SWELL
                       AIR SEA DIR/SP/G            HT/PER HT/PER
                 (UTC) (F)     (DEG/KT/KT) (MB)    (FT/S) (FT/S)
44066 TX TWR #4  1100   72 74  270/  8/ 10 1019.5R   3/ 8   3/ 8
CAPE MAY NJ      1100   68 76  170/  3/  5 1018.9S
LEWES DE         1100   66 71  210/  4/  7 1019.1S
15NM E FENWICK I 1100   73 73              1019.9R   3/ 8
OCEAN-CITY-INLET 1100   70 71  230/  4/  5 1019.1S
WACHAPREAGUE VA  1100   67 78     CALM     1019.5S
THOMAS POINT MD  1100   68 77  210/ 11/ 12 1019.6R
GOOSES REEF MD   1100   71     240/ 12/ 16 1019.3R
COVE POINT MD    1100   69     250/ 10/ 13 1018.7S
SOLOMONS ISLAND  1100      79                N/A
BISHOPS HEAD MD  1100   74 76  220/ 12/ 15 1018.7R
PINEY POINT MD   1100          240/  8/ 10   N/A
POTOMAC MD       1100   71     230/ 12/ 14 1018.4R
CAMBRIDGE MD     1100   66 78   CALM  /  1 1018.9R
LEWISETTA VA     1100   68 77  230/  7/  9 1019.1R
RAPPAHANNOCK LGT 1100          190/ 12/ 12 1020.0R
STINGRAY PT      1100   73     230/ 12/ 14 1020.0R
YORK RVR RNG VA  1100   73     210/ 10/ 11 1019.1R
YORKTOWN VA      1100   70 78  210/  5/  7 1019.3S
JAMESTOWN VA     1100   69     230/  8/ 10   N/A
DOMINION TERM VA 1100   72     190/  7/  8 1019.8R
KIPTOPEKE VA     1100      79  210/  9/ 11   N/A
CHES BAY BRIDGE  1100   72 77  170/  6/  8 1019.2R
CAPE HENRY VA    1100   70     180/  6/  8 1018.6R
WILLOUBY STN VA  1100          190/  7/  7 1019.0R
S CRANEY ISL VA  1100          160/  6/  7 1019.9R
CAPE HENRY BUOY  1100      75                N/A     2/ 8
1ST LANDING BUOY 1100   73     190/  6/  6 1019.4R
CAPE CHARLES BUO 1100      76                N/A     2/ 7
OFFSHORE WE BUOY 1100      77                N/A     2/ 8
64NM E OF VA BCH 1100   76 77  110/  2/  4 1019.5R   2/ 8   2/ 8
DUCK PIER NC     1100   75 76  100/  3/  4 1019.0R
44056 DUCK FRF   1100                        N/A     2/ 8
OREGON INLET NC  1100   75 79   60/  4/  6 1019.6R
HATTERAS NC      1100   75 79   60/  3/  4 1019.5R
DIAMOND SHLS NC  1100          VRB  8/ 10  1018.9R   3/ 7   3/ 7
CAPE LOOKOUT NC  1100   79      80/ 11/ 12 1018.7R
$$


USA.gov is the U.S. government's official web portal to all federal, state and local government web resources and services.